KX4BE Weather Reports


Display with metric or nautical units.
time (UTC)temp
F
wind
direction
speed
MPH
gust
MPH
rain 1hr
in
rain 24hr
in
rain mn
in
humidity
%
barometer
mb
20260905182348 75 201 2.0 3.0 0.38 0.38 0.38 90 1016.0
20260905181846 76 200 1.0 10.0 0.38 0.38 0.38 88 1016.3
20260905181345 76 316 6.0 10.0 0.38 0.38 0.38 81 1016.5
20260905180842 78 206 4.0 22.0 0.32 0.32 0.32 82 1016.4
20260905180337 82 153 14.0 23.0 0.22 0.22 0.23 74 1016.7
20260905175834 90 178 2.0 14.0 0.11 0.11 0.11 68 1017.6
20260905175338 94 23 5.0 14.0 0.03 0.03 0.03 64 1016.7
20260905174833 96 73 2.0 7.0 0.00 0.00 0.00 55 1016.2
20260905174352 96 146 4.0 10.0 0.00 0.00 0.00 55 1016.1
20260905173849 96 60 4.0 11.0 0.00 0.00 0.00 54 1016.2
20260905173403 97 144 4.0 11.0 0.00 0.00 0.00 54 1016.2
20260905172840 98 332 6.0 11.0 0.00 0.00 0.00 53 1016.2
20260905172339 98 128 4.0 10.0 0.00 0.00 0.00 53 1016.3
20260905171854 98 254 2.0 11.0 0.00 0.00 0.00 53 1016.3
20260905171332 98 65 3.0 7.0 0.00 0.00 0.00 54 1016.3
20260905170848 98 65 2.0 6.0 0.00 0.00 0.00 55 1016.3
20260905170403 97 161 3.0 8.0 0.00 0.00 0.00 55 1016.3
20260905165838 96 161 5.0 8.0 0.00 0.00 0.00 55 1016.4
20260905165337 96 340 2.0 12.0 0.00 0.00 0.00 55 1016.6
20260905164835 97 65 7.0 12.0 0.00 0.00 0.00 55 1016.7
20260905164334 97 27 5.0 8.0 0.00 0.00 0.00 54 1016.7
20260905163833 96 165 3.0 6.0 0.00 0.00 0.00 58 1016.7
20260905163349 96 139 1.0 3.0 0.00 0.00 0.00 59 1016.9
20260905162843 96 140 1.0 4.0 0.00 0.00 0.00 59 1016.9
20260905162342 95 143 1.0 6.0 0.00 0.00 0.00 59 1017.0
20260905161840 95 19 3.0 7.0 0.00 0.00 0.00 60 1017.0
20260905161342 95 48 5.0 7.0 0.00 0.00 0.00 59 1017.0
20260905160841 94 51 3.0 8.0 0.00 0.00 0.00 61 1017.0
20260905160337 94 236 2.0 10.0 0.00 0.00 0.00 61 1017.1
20260905155835 94 43 3.0 5.0 0.00 0.00 0.00 61 1017.1
20260905155333 94 69 3.0 5.0 0.00 0.00 0.00 62 1017.2
20260905154831 93 331 1.0 3.0 0.00 0.00 0.00 63 1017.1
20260905154410 93 116 1.0 6.0 0.00 0.00 0.00 63 1017.2
20260905153847 93 179 4.0 6.0 0.00 0.00 0.00 62 1017.2
20260905153343 93 140 1.0 3.0 0.00 0.00 0.00 63 1017.4
20260905152839 93 314 1.0 9.0 0.00 0.00 0.00 64 1017.3
20260905152338 94 49 5.0 9.0 0.00 0.00 0.00 62 1017.4
20260905151833 93 85 3.0 5.0 0.00 0.00 0.00 63 1017.5
20260905151333 93 118 2.0 5.0 0.00 0.00 0.00 65 1017.4
20260905150851 92 173 2.0 4.0 0.00 0.00 0.00 65 1017.5
20260905150347 92 140 2.0 4.0 0.00 0.00 0.00 65 1017.5
20260905145845 92 110 1.0 5.0 0.00 0.00 0.00 66 1017.5
20260905145405 92 143 3.0 5.0 0.00 0.00 0.00 67 1017.7
20260905144843 91 104 2.0 4.0 0.00 0.00 0.00 68 1017.5
20260905144341 91 156 1.0 3.0 0.00 0.00 0.00 69 1017.6
20260905143839 90 64 1.0 3.0 0.00 0.00 0.00 67 1017.6
20260905143334 90 64 1.0 3.0 0.00 0.00 0.00 69 1017.7
20260905142831 90 67 1.0 3.0 0.00 0.00 0.00 70 1017.6
20260905142411 89 67 1.0 3.0 0.00 0.00 0.00 71 1017.8
20260905141844 89 67 0.0 4.0 0.00 0.00 0.00 72 1017.8
20260905141341 88 65 0.0 4.0 0.00 0.00 0.00 72 1017.9
20260905140840 88 65 2.0 4.0 0.00 0.00 0.00 73 1017.9
20260905140336 87 65 2.0 3.0 0.00 0.00 0.00 74 1017.9
20260905135834 86 207 1.0 2.0 0.00 0.00 0.00 76 1017.9
20260905135332 85 207 1.0 2.0 0.00 0.00 0.00 77 1018.0
20260905134850 85 207 1.0 2.0 0.00 0.00 0.00 78 1017.9
20260905134409 84 207 1.0 2.0 0.00 0.00 0.00 80 1018.0
20260905133842 83 207 0.0 3.0 0.00 0.00 0.00 81 1018.0
20260905133359 82 205 1.0 3.0 0.00 0.00 0.00 81 1018.1
20260905132836 82 205 0.0 2.0 0.00 0.00 0.00 83 1018.1
20260905132335 81 202 0.0 2.0 0.00 0.00 0.00 83 1018.1
20260905131834 81 202 1.0 3.0 0.00 0.00 0.00 84 1018.1
20260905131337 81 202 1.0 3.0 0.00 0.00 0.00 83 1018.2
20260905130833 81 222 0.0 3.0 0.00 0.00 0.00 84 1018.0
20260905130409 81 222 0.0 0.0 0.00 0.00 0.00 83 1018.2
20260905125844 81 222 0.0 0.0 0.00 0.00 0.00 84 1018.2
20260905125342 80 222 0.0 0.0 0.00 0.00 0.00 86 1018.1
20260905124859 80 222 0.0 0.0 0.00 0.00 0.00 87 1018.1
20260905124337 79 222 0.0 0.0 0.00 0.00 0.00 88 1018.0
20260905123854 79 222 0.0 0.0 0.00 0.00 0.00 88 1018.0
20260905123345 78 222 0.0 0.0 0.00 0.00 0.00 89 1018.0
20260905122843 78 222 0.0 0.0 0.00 0.00 0.00 91 1018.0
20260905122403 77 222 0.0 0.0 0.00 0.00 0.00 92 1018.0
20260905121841 76 222 0.0 0.0 0.00 0.00 0.00 93 1018.0
20260905121359 76 222 0.0 0.0 0.00 0.00 0.00 93 1018.0
20260905120836 76 222 0.0 0.0 0.00 0.00 0.00 93 1017.7
20260905120349 75 222 0.0 0.0 0.00 0.00 0.00 93 1017.7
20260905115844 75 222 0.0 0.0 0.00 0.00 0.00 93 1017.6
20260905115343 75 222 0.0 0.0 0.00 0.00 0.00 93 1017.6
20260905114901 75 222 0.0 0.0 0.00 0.00 0.00 93 1017.6
20260905114340 75 222 0.0 0.0 0.00 0.00 0.00 93 1017.5
20260905113839 75 222 0.0 0.0 0.00 0.00 0.00 93 1017.5
20260905113335 75 222 0.0 0.0 0.00 0.00 0.00 93 1017.3
20260905112834 75 222 0.0 0.0 0.00 0.00 0.00 93 1017.4
20260905112334 75 222 0.0 0.0 0.00 0.00 0.00 92 1017.2
20260905111831 75 222 0.0 0.0 0.00 0.00 0.00 92 1017.2
20260905111349 75 222 0.0 0.0 0.00 0.00 0.00 92 1017.2
20260905110848 76 222 0.0 0.0 0.00 0.00 0.00 92 1017.1
20260905110344 76 222 0.0 0.0 0.00 0.00 0.00 92 1017.0
20260905105842 76 222 0.0 0.0 0.00 0.00 0.00 92 1017.0
20260905105338 76 222 0.0 0.0 0.00 0.00 0.00 91 1017.0
20260905104835 76 302 0.0 0.0 0.00 0.00 0.00 92 1016.9
20260905104355 76 302 0.0 0.0 0.00 0.00 0.00 91 1016.9
20260905103853 76 302 0.0 0.0 0.00 0.00 0.00 91 1017.0
20260905103348 76 302 0.0 0.0 0.00 0.00 0.00 91 1016.8
20260905102846 76 302 0.0 0.0 0.00 0.00 0.00 91 1016.8
20260905102346 76 302 0.0 0.0 0.00 0.00 0.00 91 1016.8
20260905101840 76 302 0.0 0.0 0.00 0.00 0.00 91 1016.9
20260905101339 76 302 0.0 0.0 0.00 0.00 0.00 91 1017.0
20260905100842 76 302 0.0 0.0 0.00 0.00 0.00 91 1016.9
20260905100337 76 302 0.0 0.0 0.00 0.00 0.00 91 1016.9
20260905095834 76 302 0.0 0.0 0.00 0.00 0.00 91 1016.9
20260905095333 76 302 0.0 0.0 0.00 0.00 0.00 91 1016.9
20260905094829 77 302 0.0 0.0 0.00 0.00 0.00 91 1016.9
20260905094329 77 302 0.0 0.0 0.00 0.00 0.00 91 1016.8
20260905093908 77 302 0.0 0.0 0.00 0.00 0.00 90 1016.8
20260905093342 77 302 0.0 0.0 0.00 0.00 0.00 90 1016.6
20260905092840 77 302 0.0 0.0 0.00 0.00 0.00 90 1016.7
20260905092339 77 302 0.0 0.0 0.00 0.00 0.00 90 1016.7
20260905091838 77 302 0.0 0.0 0.00 0.00 0.00 90 1016.7
20260905091334 77 302 0.0 0.0 0.00 0.00 0.00 90 1016.7
20260905090852 77 302 0.0 0.0 0.00 0.00 0.00 89 1016.7
20260905090407 77 302 0.0 0.0 0.00 0.00 0.00 89 1016.6
20260905085844 77 302 0.0 0.0 0.00 0.00 0.00 89 1016.7
20260905085341 77 302 0.0 0.0 0.00 0.00 0.00 89 1016.7
20260905084839 77 302 0.0 0.0 0.00 0.00 0.00 89 1016.6
20260905084343 77 302 0.0 0.0 0.00 0.00 0.00 89 1016.6
20260905083840 77 302 0.0 0.0 0.00 0.00 0.00 89 1016.5
20260905083336 77 302 0.0 0.0 0.00 0.00 0.00 89 1016.6
20260905082833 77 302 0.0 0.0 0.00 0.00 0.00 89 1016.7
20260905082353 77 302 0.0 0.0 0.00 0.00 0.00 89 1016.6
20260905081848 77 302 0.0 0.0 0.00 0.00 0.00 89 1016.5
20260905081348 77 302 0.0 0.0 0.00 0.00 0.00 89 1016.6
20260905080843 78 302 0.0 0.0 0.00 0.00 0.00 89 1016.6
20260905080339 78 302 0.0 0.0 0.00 0.00 0.00 89 1016.4
20260905075835 78 302 0.0 0.0 0.00 0.00 0.00 88 1016.5
20260905075334 78 302 0.0 0.0 0.00 0.00 0.00 88 1016.5
20260905074832 78 302 0.0 0.0 0.00 0.00 0.00 88 1016.5
20260905074331 78 302 0.0 0.0 0.00 0.00 0.00 87 1016.5
20260905073850 78 302 0.0 0.0 0.00 0.00 0.00 87 1016.5
20260905073343 78 302 0.0 0.0 0.00 0.00 0.00 87 1016.4
20260905072841 78 302 0.0 0.0 0.00 0.00 0.00 87 1016.4
20260905072359 78 302 0.0 0.0 0.00 0.00 0.00 86 1016.3
20260905071839 78 302 0.0 0.0 0.00 0.00 0.00 86 1016.3
20260905071359 78 302 0.0 0.0 0.00 0.00 0.00 86 1016.4
20260905070834 79 302 0.0 0.0 0.00 0.00 0.00 86 1016.4
20260905070349 79 302 0.0 0.0 0.00 0.00 0.00 86 1016.3
20260905065903 79 302 0.0 0.0 0.00 0.00 0.00 86 1016.4
20260905065341 79 302 0.0 0.0 0.00 0.00 0.00 86 1016.5
20260905064836 79 302 0.0 0.0 0.00 0.00 0.00 85 1016.7
20260905064336 79 302 0.0 0.0 0.00 0.00 0.00 85 1016.6
20260905063852 80 302 0.0 0.0 0.00 0.00 0.00 85 1016.6
20260905063407 80 302 0.0 0.0 0.00 0.00 0.00 85 1016.6
20260905062843 80 302 0.0 0.0 0.00 0.00 0.00 84 1016.7
20260905062343 80 302 0.0 0.0 0.00 0.00 0.00 84 1016.7
20260905061840 80 302 0.0 0.0 0.00 0.00 0.00 84 1016.7
20260905061338 80 302 0.0 0.0 0.00 0.00 0.00 83 1016.6
20260905060836 80 302 0.0 0.0 0.00 0.00 0.00 83 1016.6
20260905060351 80 302 0.0 0.0 0.00 0.00 0.00 83 1016.6
20260905055909 80 302 0.0 0.0 0.00 0.00 0.00 82 1016.8
20260905055345 80 302 0.0 0.0 0.00 0.00 0.00 83 1016.8
20260905054842 80 302 0.0 0.0 0.00 0.00 0.00 83 1016.8
20260905054342 81 302 0.0 0.0 0.00 0.00 0.00 82 1016.8
20260905053841 81 302 0.0 0.0 0.00 0.00 0.00 83 1016.9
20260905053340 81 302 0.0 0.0 0.00 0.00 0.00 83 1016.8
20260905052858 81 302 0.0 0.0 0.00 0.00 0.00 82 1016.8
20260905052336 81 302 0.0 0.0 0.00 0.00 0.00 83 1016.8
20260905051830 81 302 0.0 0.0 0.00 0.00 0.00 83 1016.9
20260905051329 81 302 0.0 0.0 0.00 0.00 0.00 83 1016.8
20260905050848 81 302 0.0 0.0 0.00 0.00 0.00 83 1016.8
20260905050343 81 302 0.0 0.0 0.00 0.00 0.00 84 1017.0
20260905045841 81 302 0.0 0.0 0.00 0.00 0.00 84 1016.9
20260905045359 81 302 0.0 0.0 0.00 0.00 0.00 84 1017.0
20260905044835 81 302 0.0 0.0 0.00 0.00 0.00 83 1017.0
20260905044334 81 302 0.0 0.0 0.00 0.00 0.00 83 1017.0
20260905043852 81 302 0.0 0.0 0.00 0.00 0.00 83 1017.0
20260905043347 81 302 0.0 0.0 0.00 0.00 0.00 83 1017.0
20260905042843 81 302 0.0 0.0 0.00 0.00 0.00 83 1017.0
20260905042343 81 302 0.0 0.0 0.00 0.00 0.00 82 1017.0
20260905041841 82 302 0.0 0.0 0.00 0.00 0.00 82 1017.2
20260905041338 82 302 0.0 0.0 0.00 0.00 0.00 82 1017.1
20260905040840 82 302 0.0 0.0 0.00 0.00 0.00 82 1017.2
20260905040336 82 302 0.0 0.0 0.00 0.00 0.00 82 1017.2
20260905035833 82 302 0.0 0.0 0.00 0.00 0.00 82 1017.3
20260905035331 82 302 0.0 0.0 0.00 0.00 0.00 82 1017.4
20260905034847 82 302 0.0 0.0 0.00 0.00 0.00 81 1017.4
20260905034348 82 302 0.0 0.0 0.00 0.00 0.00 81 1017.4
20260905033842 83 302 0.0 0.0 0.00 0.00 0.00 80 1017.5
20260905033338 83 302 0.0 0.0 0.00 0.00 0.00 79 1017.6
20260905032834 83 302 0.0 0.0 0.00 0.00 0.00 80 1017.6
20260905032333 83 302 0.0 0.0 0.00 0.00 0.00 79 1017.5
20260905031830 83 302 0.0 0.0 0.00 0.00 0.00 80 1017.5
20260905031350 83 302 0.0 0.0 0.00 0.00 0.00 80 1017.6
20260905030844 83 302 0.0 0.0 0.00 0.00 0.00 81 1017.6
20260905030341 83 302 0.0 0.0 0.00 0.00 0.00 81 1017.8
20260905025837 83 302 0.0 0.0 0.00 0.00 0.00 81 1017.9
20260905025337 83 302 0.0 0.0 0.00 0.00 0.00 81 1018.0
20260905024837 83 302 0.0 0.0 0.00 0.00 0.00 81 1017.9
20260905024337 83 302 0.0 0.0 0.00 0.00 0.00 81 1018.0
20260905023915 84 302 0.0 0.0 0.00 0.00 0.00 80 1018.0
20260905023348 84 302 0.0 0.0 0.00 0.00 0.00 80 1018.1
20260905022847 84 302 0.0 0.0 0.00 0.00 0.00 80 1018.0
20260905022345 84 302 0.0 0.0 0.00 0.00 0.00 79 1018.0
20260905021843 84 302 0.0 0.0 0.00 0.00 0.00 77 1017.9
20260905021342 84 302 0.0 0.0 0.00 0.00 0.00 77 1017.9
20260905020902 84 302 0.0 0.0 0.00 0.00 0.00 77 1017.9
20260905020336 85 302 0.0 0.0 0.00 0.00 0.00 77 1018.0
20260905015831 85 302 0.0 2.0 0.00 0.00 0.00 76 1017.9
20260905015350 85 302 0.0 2.0 0.00 0.00 0.00 77 1017.9
20260905014845 85 302 0.0 0.0 0.00 0.00 0.00 77 1017.9
20260905014345 85 302 0.0 0.0 0.00 0.00 0.00 77 1018.0
20260905013845 85 302 0.0 0.0 0.00 0.00 0.00 77 1017.9
20260905013400 85 302 0.0 0.0 0.00 0.00 0.00 77 1017.8
20260905012833 85 302 0.0 0.0 0.00 0.00 0.00 77 1017.7
20260905012333 85 302 0.0 0.0 0.00 0.00 0.00 77 1017.5
20260905011831 85 302 0.0 0.0 0.00 0.00 0.00 77 1017.6
20260905011334 85 302 0.0 0.0 0.00 0.00 0.00 76 1017.5
20260905010833 86 302 0.0 0.0 0.00 0.00 0.00 76 1017.5
20260905010409 86 302 0.0 0.0 0.00 0.00 0.00 75 1017.7
20260905005845 86 302 0.0 0.0 0.00 0.00 0.00 75 1017.5
20260905005342 86 302 0.0 0.0 0.00 0.00 0.00 75 1017.5
20260905004838 87 302 0.0 0.0 0.00 0.00 0.00 74 1017.5
20260905004336 87 302 0.0 0.0 0.00 0.00 0.00 73 1017.5
20260905003834 87 302 0.0 0.0 0.00 0.00 0.00 72 1017.3
20260905003410 87 302 0.0 0.0 0.00 0.00 0.00 72 1017.4
20260905002847 88 302 0.0 0.0 0.00 0.00 0.00 71 1017.4
20260905002406 88 302 0.0 1.0 0.00 0.00 0.00 69 1017.3
20260905001838 88 302 0.0 1.0 0.00 0.00 0.00 70 1017.4
20260905001338 89 302 0.0 0.0 0.00 0.00 0.00 69 1017.3
20260905000836 89 302 0.0 0.0 0.00 0.00 0.00 69 1017.3
20260905000333 89 302 0.0 0.0 0.00 0.00 0.00 67 1017.3
20260904235849 89 302 0.0 0.0 0.00 0.00 0.00 67 1017.3
20260904235408 90 302 0.0 0.0 0.00 0.00 0.00 66 1017.3
20260904234842 90 302 0.0 1.0 0.00 0.00 0.00 65 1017.2
20260904234341 90 302 0.0 1.0 0.00 0.00 0.00 64 1017.1
20260904233842 91 302 0.0 0.0 0.00 0.00 0.00 64 1017.1
20260904233344 91 302 0.0 2.0 0.00 0.00 0.00 63 1017.0
20260904232841 92 302 1.0 2.0 0.00 0.00 0.00 63 1016.8
20260904232341 92 301 0.0 2.0 0.00 0.00 0.00 62 1016.7
20260904231839 92 301 0.0 3.0 0.00 0.00 0.00 61 1016.8
20260904231338 93 301 1.0 3.0 0.00 0.00 0.00 61 1016.8
20260904230838 93 301 1.0 3.0 0.00 0.00 0.00 60 1016.7
20260904230355 93 47 0.0 2.0 0.00 0.00 0.00 60 1016.7
20260904225831 93 47 1.0 2.0 0.00 0.00 0.00 60 1016.7
20260904225331 93 351 0.0 2.0 0.00 0.00 0.00 59 1016.8
20260904224848 93 350 1.0 3.0 0.00 0.00 0.00 59 1016.7
20260904224348 93 325 1.0 2.0 0.00 0.00 0.00 58 1016.9
20260904223845 93 325 0.0 4.0 0.00 0.00 0.00 59 1016.8
20260904223342 93 265 1.0 4.0 0.00 0.00 0.00 58 1016.8
20260904222839 94 34 1.0 3.0 0.00 0.00 0.00 58 1016.8
20260904222339 94 347 1.0 6.0 0.00 0.00 0.00 57 1016.6
20260904221841 94 27 3.0 6.0 0.00 0.00 0.00 57 1016.7
20260904221341 94 5 2.0 6.0 0.00 0.00 0.00 58 1016.4
20260904220839 94 29 2.0 6.0 0.00 0.00 0.00 57 1016.4
20260904220336 94 350 1.0 8.0 0.00 0.00 0.00 57 1016.4
20260904215832 95 336 3.0 8.0 0.00 0.00 0.00 57 1016.4
20260904215332 95 5 2.0 9.0 0.00 0.00 0.00 58 1016.4
20260904214829 95 317 2.0 9.0 0.00 0.00 0.00 56 1016.4
20260904214410 95 355 3.0 9.0 0.00 0.00 0.00 56 1016.5
20260904213843 95 50 1.0 7.0 0.00 0.00 0.00 54 1016.5
20260904213345 96 30 2.0 7.0 0.00 0.00 0.00 54 1016.7
20260904212845 96 355 2.0 7.0 0.00 0.00 0.00 53 1016.7
20260904212345 96 331 2.0 5.0 0.00 0.00 0.00 52 1016.7
20260904211843 97 24 2.0 6.0 0.00 0.00 0.00 50 1016.8
20260904211343 97 71 2.0 6.0 0.00 0.00 0.00 49 1016.8
20260904210841 98 360 2.0 6.0 0.00 0.00 0.00 50 1016.8
20260904210341 99 61 2.0 6.0 0.00 0.00 0.00 48 1016.8
20260904205837 99 355 2.0 9.0 0.00 0.00 0.00 48 1016.7
20260904205337 100 74 3.0 9.0 0.00 0.00 0.00 46 1016.9
20260904204836 101 51 2.0 5.0 0.00 0.00 0.00 45 1016.9
20260904204336 101 40 3.0 7.0 0.00 0.00 0.00 43 1016.9
20260904203832 101 104 3.0 7.0 0.00 0.00 0.00 44 1017.0
20260904203409 102 55 3.0 7.0 0.00 0.00 0.00 44 1017.1
20260904202846 102 115 3.0 9.0 0.00 0.00 0.00 43 1017.1
20260904202346 102 132 5.0 11.0 0.00 0.00 0.00 44 1017.3
20260904201844 102 132 5.0 11.0 0.00 0.00 0.00 44 1017.4
20260904201343 102 119 4.0 9.0 0.00 0.00 0.00 44 1017.4
20260904200841 101 70 2.0 8.0 0.00 0.00 0.00 44 1017.4
20260904200336 101 134 3.0 8.0 0.00 0.00 0.00 45 1017.4
20260904195834 101 108 3.0 8.0 0.00 0.00 0.00 45 1017.5
20260904195330 101 109 3.0 8.0 0.00 0.00 0.00 46 1017.5
20260904194832 101 209 2.0 5.0 0.00 0.00 0.00 46 1017.6
20260904194332 100 175 2.0 11.0 0.00 0.00 0.00 46 1017.8
20260904193909 100 152 4.0 11.0 0.00 0.00 0.00 47 1017.8
20260904193344 99 90 4.0 8.0 0.00 0.00 0.00 48 1017.8
20260904192841 99 164 2.0 8.0 0.00 0.00 0.00 48 1018.1
20260904192400 100 87 2.0 9.0 0.00 0.00 0.00 49 1018.2
20260904191833 99 130 4.0 8.0 0.00 0.00 0.00 49 1018.2
20260904191333 99 177 4.0 8.0 0.00 0.00 0.00 49 1018.3
20260904190833 99 333 1.0 10.0 0.00 0.00 0.00 49 1018.5
20260904190349 99 109 5.0 10.0 0.00 0.00 0.00 49 1018.5
20260904185846 98 67 2.0 10.0 0.00 0.00 0.00 49 1018.4
20260904185346 98 46 4.0 12.0 0.00 0.00 0.00 49 1018.6
20260904184842 98 92 5.0 10.0 0.00 0.00 0.00 49 1018.6
20260904184341 98 15 4.0 10.0 0.00 0.00 0.00 49 1018.8
20260904183840 99 60 4.0 9.0 0.00 0.00 0.00 49 1018.8
20260904183337 98 82 4.0 9.0 0.00 0.00 0.00 50 1018.8
20260904182834 98 138 3.0 9.0 0.00 0.00 0.00 51 1018.8